Regional Weather Roundup
Issued by NWS

Home | Current Version | Previous Version | Text Only | Print | Product List | Glossary Off
Versions: 1 2 3 4 5 6 7 8 9 10 11 12 13 14 15 16 17 18 19 20 21 22 23 24 25 26 27 28 29 30 31 32 33 34 35 36 37 38 39 40 41 42 43 44 45 46 47 48 49 50

000
ASUS43 KDTX 270301
RWRMI
MICHIGAN HOURLY REGIONAL WEATHER ROUNDUP
NATIONAL WEATHER SERVICE DETROIT/PONTIAC MI
1100 PM EDT TUE AUG 26 2014

NOTE: "FAIR" INDICATES FEW OR NO CLOUDS BELOW 12,000 FEET WITH NO
SIGNIFICANT WEATHER AND/OR OBSTRUCTION TO VISIBILITY.

MIZ047>049-052>055-059>063-066>070-074>076-081>083-270400-
SOUTHEAST LOWER MICHIGAN

CITY           SKY/WX    TMP DP  RH WIND       PRES   REMARKS
ADRIAN         CLEAR     70  68  93 CALM      30.08S
ALMA           PTCLDY    68  62  80 CALM      30.09R
ANN ARBOR      PTCLDY    70  68  93 NW6       30.08R
BAD AXE        CLOUDY    65  61  86 NE6       30.07S
CARO           PTCLDY    68  65  92 N5        30.06R
DETROIT CITY   PTCLDY    73  68  84 W5        30.06R
DETROIT        PTCLDY    71  69  93 W6        30.07R
FLINT          MOCLDY    72  68  87 W7        30.07R
GROSSE ILE     CLEAR     72  68  88 SW3       30.05S
HILLSDALE      PTCLDY    71  71 100 CALM      30.10S FOG
HOWELL         PTCLDY    69  68  97 W5        30.09S

CITY           SKY/WX    TMP DP  RH WIND       PRES   REMARKS
JACKSON        CLOUDY    71  68  90 CALM      30.10R
LAMBERTVILLE   CLEAR     72  68  88 CALM      30.07S
LANSING        CLEAR     68  66  93 W5        30.10R FOG
LAPEER         CLOUDY    69  67  92 W3        30.06R
MASON          CLEAR     68  66  95 CALM      30.10R
MONROE         CLEAR     68  66  94 CALM      30.05S
MT. CLEMENS    PTCLDY    70  66  87 W6        30.04S
PONTIAC        MOCLDY    71  68  90 W8        30.07R
PORT HOPE        N/A     67  59  75 N8        30.05R
PORT HURON     MOCLDY    68  68 100 CALM      30.04S
TRI CITIES     PTCLDY    73  65  75 NW8       30.07R
TROY           MOCLDY    72  68  88 W9        30.08R
SAGINAW HB     PTCLDY    72  68  88 N7        30.05R
$$
MIZ043>046-050>051-056>058-064>065-071>073-077>080-270400-
SOUTHWEST LOWER MICHIGAN

CITY           SKY/WX    TMP DP  RH WIND       PRES   REMARKS
BATTLE CREEK   CLOUDY    71  66  84 N6        30.11R
BENTON HARBOR  CLEAR     64  63  96 CALM      30.10R
BIG RAPIDS     CLEAR     62  59  91 CALM      30.10S
COLDWATER      CLOUDY    72  71  96 CALM      30.10R FOG
FREMONT        FAIR      61  58  91 CALM      30.09S
HOLLAND        CLEAR     63  61  93 CALM      30.11R
GRAND RAPIDS   CLEAR     67  62  84 NW7       30.09S
IONIA          FAIR      67  65  91 W5        30.09R
KALAMAZOO      MOCLDY    70  66  87 N8        30.11R
LUDINGTON      CLEAR     58  57  97 CALM      30.11R
MARSHALL       CLOUDY    70  69  96 CALM      30.09R
MOUNT PLEASANT CLEAR     67  61  83 CALM      30.08R
MUSKEGON       PTCLDY    66  59  78 N5        30.10S
SOUTH HAVEN    CLEAR     64  63  96 CALM      30.11R
$$
MIZ016>042-270400-
NORTHERN LOWER MICHIGAN

CITY           SKY/WX    TMP DP  RH WIND       PRES   REMARKS
ALPENA         PTCLDY    58  53  84 NW6       30.09R
BEAVER ISLAND  CLEAR     60  53  78 N6        30.12S
BELLAIRE       CLEAR     56  55  95 CALM      30.10R
CADILLAC       CLEAR     58  58  99 CALM      30.10S
CHARLEVOIX     CLEAR     60  57  89 CALM      30.12S
FRANKFORT      CLEAR     58  55  88 CALM      30.10F
GAYLORD        CLEAR     58  55  90 CALM      30.10F
GRAYLING       CLEAR     56  56  99 CALM      30.11S
HARBOR SPRINGS CLEAR     61  56  84 N3        30.10S
HOUGHTON LAKE  CLEAR     61  57  87 N3        30.10S
MANISTEE       CLEAR     57  54  88 CALM      30.11S
OSCODA         CLOUDY    64  58  83 N8        30.06S
PELLSTON       MOCLDY    56  53  90 N5        30.10S
TRAVERSE CITY  CLEAR     62  56  80 CALM      30.09S
$$
MIZ007>008-015-270400-
EASTERN UPPER MICHIGAN

CITY           SKY/WX    TMP DP  RH WIND       PRES   REMARKS
KINROSS        CLEAR     52  52 100 W7        30.11R
MACKINAC ISLAN CLEAR     56  52  87 N7        30.10S
NEWBERRY       MOCLDY    53  48  86 NW3       30.12S
S. S. MARIE    CLEAR     54  50  86 NW6       30.10R
$$
MIZ004>006-011>014-085-270400-
CENTRAL UPPER MICHIGAN

CITY           SKY/WX    TMP DP  RH WIND       PRES   REMARKS
MANISTIQUE     PTCLDY    54  49  85 N7        30.11S
ESCANABA       CLEAR     57  48  72 NE3       30.12S
MENOMINEE      CLEAR     59  54  82 CALM      30.09R
SAWYER-GWINN   CLEAR     53  48  83 N3        30.14R
$$
MIZ001>003-009>011-084-270400-
WESTERN UPPER MICHIGAN

CITY           SKY/WX    TMP DP  RH WIND       PRES   REMARKS
IRON MOUNTAIN  CLEAR     56  49  77 N5        30.13R
HOUGHTON       CLOUDY    57  49  74 W3        30.12S
COPPER HARBOR    N/A     61  49  64 NW12G17   30.11R
$$

ABBREVIATIONS USED IN REMARKS
   TC - TEMPERATURE IN CELSIUS
  WCI - WIND CHILL INDEX
   HX - HEAT INDEX
  VSB - VISIBILITY



USA.gov is the U.S. government's official web portal to all federal, state and local government web resources and services.